Wind_Speed
37 38 33 31 23 19 21 27 17 4 7 17 12 27 25 25 22 21 21 21 19 20 21 17 13 11 8 7 7 6 5 6 7 8 9 11 13 14
35 35 34 32 29 25 25 25 23 14 4 23 24 17 28 26 23 22 21 21 21 24 21 18 15 11 9 9 9 7 8 9 8 9 10 12 13 13
35 34 34 31 30 27 26 26 27 15 7 12 18 20 23 27 25 23 21 22 22 22 20 18 15 11 10 9 10 9 11 11 11 11 11 12 12 13
37 36 35 33 32 31 29 29 30 25 12 13 20 22 24 28 27 25 22 23 22 21 19 17 12 11 10 10 11 11 13 13 13 13 11 9 10 13
37 37 38 36 34 34 34 34 31 29 24 18 13 21 22 25 25 25 23 25 22 21 17 15 12 12 12 12 12 13 14 13 14 13 9 8 11 15
35 34 36 36 38 37 36 34 31 27 23 20 18 20 23 24 27 24 25 25 22 20 18 16 14 13 13 11 12 14 13 12 13 11 9 10 14 16
31 32 33 34 35 36 37 35 34 29 24 23 18 15 21 19 28 28 23 25 21 21 19 18 13 14 15 15 15 14 13 12 11 9 9 12 15 17
27 24 23 24 30 33 33 34 33 33 30 25 20 16 22 23 25 26 23 16 9 22 20 18 15 16 14 15 14 11 10 12 11 9 12 15 15 18
29 29 25 26 26 28 26 27 28 28 27 30 26 26 21 29 28 26 27 23 14 10 17 16 15 15 14 14 11 10 11 13 9 12 15 15 16 18
19 20 22 25 29 28 26 29 30 29 28 28 25 22 23 22 27 29 26 20 13 11 13 7 8 12 11 11 12 12 10 8 10 12 13 16 18 18
13 15 17 19 20 23 29 30 26 23 21 18 16 17 16 16 21 23 22 24 6 9 12 6 7 9 10 12 9 7 9 11 9 13 17 15 16 17
12 12 14 15 15 20 23 26 24 22 20 16 15 15 15 14 16 20 23 24 9 5 11 8 6 3 3 4 8 10 12 10 16 17 14 14 17 19
14 13 13 14 14 19 20 25 28 25 23 23 20 19 18 18 18 18 18 17 17 6 9 12 6 5 3 3 8 11 9 14 16 13 13 20 19 19
12 11 11 13 14 21 20 22 23 27 25 25 24 22 20 18 16 15 15 12 12 10 12 10 3 6 4 4 6 6 15 14 11 10 22 24 23 22
7 7 7 10 15 20 18 21 24 27 28 28 26 24 22 19 17 13 10 10 9 9 7 5 4 6 7 8 9 13 15 12 8 20 24 27 28 26
6 6 6 11 20 20 15 24 24 30 32 28 26 24 21 17 15 14 14 12 10 7 4 2 3 6 8 11 13 19 16 12 18 22 26 28 27 28
6 9 14 21 22 20 23 27 23 24 25 25 25 24 22 19 17 14 13 13 7 9 6 4 4 7 12 14 16 10 8 14 16 22 24 28 30 29
9 15 19 21 21 23 25 23 22 25 25 26 25 26 25 22 19 14 12 10 10 10 8 5 5 8 7 3 6 7 9 14 22 21 23 21 33 33
11 19 21 22 21 23 23 22 21 23 24 26 28 26 24 20 17 16 14 13 12 9 5 1 3 6 5 1 5 6 10 18 20 25 24 26 30 34
15 20 21 23 23 26 26 25 24 23 23 25 25 23 21 22 19 18 17 16 13 9 4 2 2 3 3 3 6 13 13 15 17 24 29 30 28 31
20 18 19 21 23 26 27 27 27 26 26 24 23 23 23 21 21 19 17 13 11 8 4 2 2 3 7 9 10 14 17 14 15 18 23 23 24 22
21 20 20 21 24 27 28 28 26 26 26 26 25 24 22 21 21 20 18 16 10 5 3 1 0 3 4 7 14 18 22 21 19 21 13 11 16 8
20 21 20 22 25 27 28 28 29 28 27 27 26 24 23 22 20 19 17 12 9 6 3 1 1 2 4 8 10 15 17 18 26 29 26 20 19 21
Wind_Direction
216 215 217 217 208 210 214 190 158 171 213 215 199 216 219 225 229 231 224 218 213 206 209 234 248 259 253 255 263 274 290 308 313 313 323 327 326 325
216 217 220 221 219 219 215 209 205 185 187 210 209 212 215 221 225 228 226 223 215 221 226 235 244 247 255 266 272 281 292 305 311 314 320 323 324 323
216 217 219 219 215 215 214 216 212 208 164 194 214 214 210 216 215 220 225 223 219 227 230 236 241 245 251 264 277 288 292 300 303 309 318 322 322 320
218 218 220 217 217 218 214 214 217 215 196 172 198 203 208 212 221 218 220 225 224 229 233 241 239 245 256 267 272 282 289 298 301 306 313 315 314 317
220 220 222 218 215 216 217 219 221 221 220 202 179 199 200 207 207 214 223 223 221 227 228 234 240 248 258 262 270 279 290 296 301 306 305 301 314 317
225 227 227 226 225 223 221 221 219 216 211 204 194 191 200 203 211 215 209 217 220 223 226 236 247 246 248 256 271 279 289 295 304 300 296 302 310 312
228 230 232 234 232 233 227 222 216 211 202 189 190 186 194 194 201 208 208 211 219 227 230 237 242 252 252 259 266 274 287 296 298 288 296 305 309 309
221 226 229 237 237 234 231 233 226 213 205 205 208 207 211 214 207 201 195 188 202 226 231 236 248 250 254 257 268 273 282 295 291 283 305 309 306 309
233 233 233 230 227 227 222 229 221 222 224 230 227 229 214 220 212 201 203 199 200 206 213 234 237 245 253 260 259 269 281 289 282 293 304 307 306 306
233 236 237 240 232 219 217 215 224 235 232 234 241 244 240 240 232 222 207 194 194 194 198 211 227 238 245 258 264 274 271 283 299 301 307 308 309 310
228 229 233 235 235 232 229 228 224 221 221 222 228 236 239 232 219 202 187 183 165 195 201 222 230 247 262 271 266 216 239 290 300 309 311 313 314 314
223 230 236 236 232 222 217 213 198 197 196 188 186 187 187 190 197 206 201 181 161 176 207 205 213 233 290 237 230 241 261 281 305 312 316 323 322 317
228 226 227 233 223 218 218 209 202 183 178 175 166 166 165 169 177 183 195 211 195 173 193 194 194 205 250 287 259 255 261 310 314 317 325 328 326 320
236 233 233 223 213 203 201 199 195 184 176 165 161 160 158 164 169 175 181 189 208 235 196 197 193 212 240 275 268 270 299 319 321 321 331 328 330 332
245 252 242 218 206 196 198 192 196 186 177 169 166 167 168 167 165 173 179 179 178 166 177 201 227 231 245 250 278 292 324 314 321 335 328 329 332 333
223 205 187 191 195 198 183 175 190 190 185 182 173 171 168 171 172 174 165 166 161 148 152 173 219 241 256 271 286 291 304 302 320 329 327 326 328 329
186 163 167 175 176 178 181 187 190 184 184 184 177 171 166 164 167 169 170 168 158 159 158 185 237 275 288 287 284 292 313 310 323 325 326 325 326 332
174 176 172 172 172 176 180 181 190 188 190 183 177 172 167 170 166 164 172 176 167 170 182 208 280 320 322 290 286 297 301 316 325 328 331 320 322 335
196 190 183 182 179 180 181 179 175 187 188 181 174 171 170 168 163 167 170 173 172 175 179 245 326 346 4 316 320 267 306 319 326 330 331 325 312 325
212 203 195 191 187 183 181 181 183 182 180 177 173 173 173 170 169 173 176 175 172 168 175 234 274 319 327 287 305 293 325 317 325 320 323 325 320 326
213 214 213 202 193 189 189 188 189 183 181 178 176 176 176 179 177 176 171 172 172 176 185 248 294 300 302 304 296 308 328 330 322 313 316 314 311 316
218 215 214 213 202 197 192 190 186 179 182 180 181 181 182 183 176 172 168 167 168 167 171 136 298 284 287 296 305 316 321 335 341 344 344 296 281 293
227 219 211 206 201 197 192 187 182 181 183 183 181 180 182 179 177 172 168 166 159 158 147 57 28 346 340 327 314 321 326 338 342 343 348 355 335 308
Height
832 835 839 842 845 848 850 851 855 867 867 866 868 871 874 877 879 883 884 886 886 891 890 890 891 891 891 891 890 890 889 888 887 887 885 883 882 881
826 830 834 837 841 844 846 849 851 852 858 860 862 865 869 872 876 878 880 883 883 886 887 888 888 888 889 890 890 887 888 886 885 884 882 881 879 878
822 825 829 833 836 840 843 845 848 850 852 857 859 862 864 867 871 875 878 880 880 883 884 885 886 886 886 886 888 886 887 884 883 881 879 878 877 876
816 820 823 828 831 834 837 840 843 846 848 851 853 858 860 862 868 871 872 877 878 880 882 883 883 884 884 884 884 883 883 881 880 878 876 875 873 873
810 814 818 822 825 828 831 834 838 841 843 847 848 853 855 858 863 867 868 872 874 876 878 881 881 881 880 881 881 880 878 877 877 875 874 872 870 869
805 809 814 816 819 822 826 828 832 837 838 841 845 848 851 854 858 860 865 868 870 872 874 875 875 877 878 878 876 876 873 872 873 873 872 870 868 866
802 805 808 812 815 817 820 821 825 829 836 837 840 841 843 848 849 852 858 863 867 868 871 871 871 873 875 876 874 871 870 869 869 870 868 867 864 862
798 801 804 807 811 814 815 817 820 823 828 832 835 837 837 841 845 849 853 858 864 863 865 866 866 868 869 870 870 868 867 867 867 867 865 862 861 859
791 794 797 802 805 810 810 814 817 820 822 827 829 829 832 835 841 846 848 851 855 858 861 862 862 863 865 866 866 865 865 865 863 863 861 859 857 854
787 790 794 798 801 803 805 808 811 814 817 820 823 824 828 832 837 839 843 849 853 855 858 860 858 861 861 862 861 861 862 862 861 860 858 855 852 849
786 788 790 792 796 798 801 804 806 809 813 817 819 824 826 829 831 837 841 846 851 854 855 856 856 857 856 858 858 858 858 859 857 854 852 850 847 843
782 784 788 789 791 794 795 798 803 806 809 813 817 820 823 826 830 834 838 842 847 849 850 853 855 855 856 854 857 857 856 855 853 849 847 845 842 838
781 782 782 788 790 791 793 797 798 803 808 811 815 820 823 826 831 834 837 841 842 845 847 849 850 853 855 855 856 855 853 851 848 845 843 840 837 834
779 780 782 786 790 791 792 795 799 802 807 810 814 820 823 829 832 834 837 839 841 845 845 846 848 852 854 855 854 851 848 846 843 841 838 834 831 827
779 779 781 784 788 791 793 794 796 802 805 811 813 818 822 827 832 835 836 838 841 843 844 846 848 851 854 854 852 848 845 841 840 838 834 829 825 821
777 779 780 783 789 791 795 797 797 801 804 807 811 817 820 824 830 834 835 838 841 842 843 846 850 852 852 851 848 845 845 842 837 835 830 824 820 817
777 776 778 781 786 791 796 797 799 800 803 807 811 815 819 823 829 832 835 838 839 842 845 848 851 850 849 847 843 841 840 839 838 833 828 821 814 810
775 777 780 783 785 787 791 795 797 799 803 806 809 813 816 821 826 830 834 837 840 844 847 848 847 846 844 843 841 840 839 837 834 830 826 821 809 804
773 775 777 779 782 785 790 794 797 801 802 805 808 811 814 818 824 829 834 838 842 844 845 846 845 845 844 844 841 839 838 835 831 825 822 818 810 798
771 773 774 777 781 783 787 791 795 800 803 806 808 811 815 818 824 829 834 837 840 842 843 843 844 843 843 843 841 837 836 832 828 823 817 812 806 797
768 771 774 777 778 782 785 789 792 796 800 805 809 812 816 820 824 829 833 836 839 840 840 841 841 842 841 841 839 834 830 830 827 821 816 811 803 794
768 769 772 775 778 780 782 787 792 796 799 802 809 813 817 821 824 828 832 834 836 838 840 840 840 839 839 838 836 834 828 823 822 817 813 811 806 799
766 767 770 772 775 778 781 785 788 794 798 803 807 812 816 820 824 827 830 832 833 836 837 838 839 838 837 837 834 831 828 822 817 809 806 805 801 795